Location: Al Mulaqqa?ah
(24.1833°N, 32.8833°E)
Time: 17:31:51
(UTC+00:00)

Feng Yun 1-1 Rocket - Pass Details

Date: 26 September 2021
Orbit: 830 x 933 km, 99.2° (Epoch: 15 October)

Event Time Altitude Azimuth Distance (km) Brightness Sun altitude
Rises 16:10:55 0° 150° (SSE) 3,376 7.0 -7.7°
Reaches altitude 10° 16:13:22 10° 144° (SE) 2,436 6.2 -8.3°
Maximum altitude 16:18:27 44° 73° (ENE) 1,132 4.5 -9.5°
Drops below altitude 10° 16:23:31 10° 3° (N) 2,436 6.6 -10.6°
Sets 16:25:58 0° 357° (N) 3,376 7.4 -11.2°
